GW4420 Weather Reports


time (UTC)temp
C
wind
direction
speed
KPH
gust
KPH
rain 1hr
cm
rain 24hr
cm
rain mn
cm
humidity
%
barometer
mb
20260505041659 18 59 4.8 6.4 0.00 0.79 0.79 88 1020.5
20260505041157 18 325 3.2 9.7 0.00 0.79 0.79 88 1020.6
20260505040654 18 129 0.0 6.4 0.00 0.79 0.79 88 1020.8
20260505040151 19 305 3.2 3.2 0.13 0.79 0.79 87 1020.7
20260505035648 19 36 1.6 4.8 0.13 0.79 0.79 87 1020.7
20260505035144 19 341 3.2 4.8 0.00 0.76 0.76 87 1021.0
20260505034641 19 63 1.6 4.8 0.00 0.76 0.76 86 1021.1
20260505034139 19 4 1.6 4.8 0.00 0.76 0.76 86 1021.2
20260505033634 19 22 0.0 3.2 0.00 0.76 0.76 86 1021.0
20260505033133 19 97 3.2 3.2 0.00 0.76 0.76 85 1021.0
20260505032630 19 12 4.8 12.9 0.00 0.76 0.76 84 1021.2
20260505032126 19 19 3.2 9.7 0.00 0.76 0.76 84 1021.1
20260505031624 19 76 1.6 4.8 0.00 0.76 0.76 86 1021.0
20260505031119 18 27 3.2 9.7 0.00 0.76 0.76 86 1021.1
20260505030617 18 300 9.7 16.1 0.00 0.76 0.76 85 1021.3
20260505030113 18 78 0.0 1.6 0.00 0.76 0.76 87 1021.4
20260505025608 18 351 3.2 4.8 0.00 0.76 0.76 87 1021.1
20260505025102 18 79 1.6 4.8 0.00 0.76 0.76 87 1020.8
20260505024559 18 347 6.4 11.3 0.00 0.76 0.76 87 1021.2
20260505024056 18 23 3.2 4.8 0.00 0.76 0.76 88 1021.2
20260505023554 18 343 3.2 16.1 0.00 0.76 0.76 87 1021.3
20260505023051 18 16 6.4 16.1 0.00 0.76 0.76 87 1021.2
20260505022549 18 54 3.2 4.8 0.00 0.76 0.76 88 1021.4
20260505022045 18 43 4.8 6.4 0.00 0.76 0.76 88 1021.4
20260505021542 18 19 4.8 9.7 0.00 0.76 0.76 88 1021.2
20260505021039 18 42 3.2 4.8 0.00 0.76 0.76 89 1021.2
20260505020538 18 47 3.2 6.4 0.00 0.76 0.76 88 1021.2
20260505020036 18 78 1.6 4.8 0.18 0.76 0.76 89 1021.5
20260505015533 18 54 1.6 4.8 0.18 0.76 0.76 89 1021.7
20260505015029 18 328 3.2 6.4 0.00 0.74 0.74 89 1021.4
20260505014526 18 345 4.8 6.4 0.13 0.74 0.74 89 1021.5
20260505014024 18 89 1.6 4.8 0.13 0.74 0.74 89 1021.5
20260505013521 18 68 1.6 9.7 0.18 0.71 0.71 89 1021.6
20260505013018 18 15 4.8 6.4 0.18 0.71 0.71 89 1021.7
20260505012516 18 46 0.0 4.8 0.18 0.69 0.69 89 1021.8
20260505012013 18 80 0.0 3.2 0.13 0.66 0.66 89 1021.9
20260505011508 18 43 1.6 11.3 0.13 0.66 0.66 88 1022.0
20260505011005 17 321 3.2 4.8 0.18 0.64 0.64 88 1022.2
20260505010501 17 68 0.0 4.8 0.18 0.64 0.64 88 1022.2
20260505005957 17 86 1.6 3.2 0.13 0.61 0.61 88 1022.1
20260505005454 17 5 1.6 4.8 0.13 0.61 0.61 88 1022.0
20260505004952 17 325 4.8 4.8 0.18 0.58 0.58 88 1022.0
20260505004448 18 343 6.4 6.4 0.18 0.58 0.58 88 1021.9
20260505003945 18 338 0.0 1.6 0.13 0.56 0.56 88 1022.0
20260505003442 18 38 1.6 4.8 0.30 0.56 0.56 88 1022.2
20260505002938 18 95 0.0 1.6 0.18 0.53 0.53 88 1022.0
20260505002435 18 88 0.0 4.8 0.13 0.51 0.51 88 1022.2
20260505001933 18 5 3.2 4.8 0.30 0.51 0.51 88 1022.0
20260505001431 17 91 0.0 1.6 0.30 0.48 0.48 87 1022.2
20260505000927 17 180 1.6 1.6 0.13 0.46 0.46 87 1022.3
20260505000428 17 73 0.0 1.6 0.00 0.43 0.43 87 1022.1
20260504235922 17 48 0.0 4.8 0.00 0.43 0.43 87 1022.1
20260504235420 17 59 1.6 3.2 0.00 0.43 0.43 87 1022.2
20260504234915 17 76 0.0 3.2 0.00 0.43 0.43 88 1022.1
20260504234408 17 270 3.2 11.3 0.00 0.43 0.43 87 1022.1
20260504233904 17 29 3.2 11.3 0.00 0.43 0.43 87 1022.1
20260504233400 17 93 0.0 3.2 0.00 0.43 0.43 88 1022.1
20260504232856 17 90 0.0 3.2 0.00 0.43 0.43 88 1022.2
20260504232354 17 14 4.8 9.7 0.00 0.43 0.43 88 1022.0
20260504231850 17 302 1.6 4.8 0.00 0.43 0.43 88 1022.1
20260504231347 17 92 0.0 3.2 0.00 0.43 0.43 88 1022.0
20260504230843 17 85 1.6 3.2 0.00 0.43 0.43 88 1022.0
20260504230341 17 58 1.6 3.2 0.00 0.43 0.43 88 1021.9
20260504225840 17 316 1.6 4.8 0.00 0.43 0.43 88 1021.8
20260504225335 17 340 6.4 11.3 0.00 0.43 0.43 88 1021.7
20260504224833 17 330 3.2 4.8 0.00 0.43 0.43 89 1021.8
20260504224329 17 93 0.0 1.6 0.00 0.43 0.43 89 1021.9
20260504223826 17 76 0.0 4.8 0.00 0.43 0.43 89 1021.8
20260504223322 17 93 0.0 1.6 0.00 0.43 0.43 89 1021.6
20260504222819 16 91 0.0 1.6 0.00 0.43 0.43 89 1021.6
20260504222316 16 109 0.0 0.0 0.00 0.43 0.43 90 1021.7
20260504221814 16 7 1.6 1.6 0.00 0.43 0.43 89 1021.4
20260504221310 16 340 1.6 9.7 0.00 0.43 0.43 90 1021.7
20260504220808 16 182 0.0 0.0 0.00 0.43 0.43 89 1021.5
20260504220304 16 97 0.0 3.2 0.00 0.43 0.43 89 1021.6
20260504215802 16 68 1.6 4.8 0.00 0.43 0.43 89 1021.5
20260504215258 16 26 3.2 9.7 0.00 0.43 0.43 89 1021.6
20260504214754 16 312 4.8 6.4 0.00 0.43 0.43 90 1021.2
20260504214251 16 287 6.4 9.7 0.00 0.43 0.43 90 1021.3
20260504213747 16 22 0.0 4.8 0.00 0.43 0.43 90 1021.0
20260504213243 16 21 3.2 4.8 0.00 0.43 0.43 91 1021.1
20260504212741 16 109 0.0 3.2 0.00 0.43 0.43 91 1021.1
20260504212237 16 80 0.0 4.8 0.18 0.43 0.43 91 1020.7
20260504211735 16 63 0.0 3.2 0.00 0.41 0.41 91 1021.0
20260504211231 16 62 1.6 1.6 0.00 0.41 0.41 91 1020.9
20260504210728 16 319 0.0 0.0 0.00 0.41 0.41 91 1020.8
20260504210226 16 99 0.0 0.0 0.00 0.41 0.41 91 1020.9
20260504205722 16 98 0.0 0.0 0.00 0.41 0.41 91 1021.0
20260504205220 16 358 1.6 3.2 0.00 0.41 0.41 91 1020.6
20260504204718 16 85 1.6 3.2 0.00 0.41 0.41 91 1020.5
20260504204216 16 52 0.0 3.2 0.00 0.41 0.41 91 1020.6
20260504203715 16 93 0.0 4.8 0.00 0.41 0.41 91 1020.3
20260504203212 16 7 1.6 4.8 0.00 0.41 0.41 91 1020.5
20260504202712 16 48 0.0 6.4 0.00 0.41 0.41 91 1020.3
20260504202209 16 75 3.2 3.2 0.00 0.41 0.41 91 1020.3
20260504201706 15 75 0.0 0.0 0.00 0.41 0.41 91 1020.4
20260504201204 15 84 1.6 4.8 0.00 0.41 0.41 91 1020.4
20260504200701 15 354 3.2 4.8 0.00 0.41 0.41 91 1020.4
20260504200157 15 314 3.2 6.4 0.00 0.41 0.41 92 1020.2
20260504195653 16 350 3.2 6.4 0.00 0.41 0.41 92 1020.2
20260504195149 16 81 1.6 4.8 0.13 0.41 0.41 92 1020.4
20260504194646 16 359 4.8 11.3 0.13 0.41 0.41 92 1020.4
20260504194142 16 348 8.0 11.3 0.00 0.38 0.38 92 1020.5
20260504193639 16 329 3.2 12.9 0.00 0.38 0.38 92 1020.6
20260504193137 15 298 3.2 6.4 0.00 0.38 0.38 92 1020.6
20260504192635 15 11 4.8 9.7 0.00 0.38 0.38 92 1020.7
20260504192133 15 76 4.8 6.4 0.00 0.38 0.38 92 1020.9
20260504191631 15 324 6.4 9.7 0.00 0.38 0.38 92 1020.9
20260504191127 15 282 6.4 9.7 0.00 0.38 0.38 92 1021.2
20260504190623 15 299 6.4 12.9 0.00 0.38 0.38 92 1021.3
20260504190120 15 35 3.2 11.3 0.00 0.38 0.38 92 1021.3
20260504185616 15 319 4.8 9.7 0.18 0.38 0.38 92 1021.1
20260504185113 15 358 4.8 11.3 0.36 0.38 0.38 92 1021.2
20260504184609 15 311 4.8 9.7 0.18 0.36 0.36 92 1021.4
20260504184104 15 336 3.2 12.9 0.13 0.33 0.33 92 1021.4
20260504183601 15 314 6.4 9.7 0.43 0.33 0.33 92 1021.3
20260504183059 15 311 9.7 12.9 0.30 0.30 0.30 91 1021.1
20260504182556 15 288 4.8 9.7 0.18 0.25 0.25 91 1021.3
20260504182053 15 315 6.4 9.7 0.13 0.23 0.23 91 1021.3
20260504181550 15 303 9.7 14.5 0.30 0.23 0.23 91 1021.3
20260504181048 15 73 0.0 6.4 0.30 0.20 0.20 91 1021.6
20260504180547 15 328 1.6 6.4 0.30 0.18 0.18 91 1021.6
20260504180046 15 76 0.0 6.4 0.30 0.15 0.15 90 1021.4
20260504175542 15 6 1.6 3.2 0.30 0.13 0.13 90 1021.3
20260504175039 15 353 4.8 9.7 0.18 0.10 0.10 90 1021.5
20260504174537 15 333 4.8 6.4 0.18 0.08 0.08 89 1021.7
20260504174034 15 269 9.7 11.3 0.18 0.08 0.08 89 1021.8
20260504173530 15 292 3.2 4.8 0.30 0.05 0.05 88 1022.0
20260504173023 15 341 1.6 9.7 0.18 0.03 0.03 87 1022.0
20260504172519 15 226 1.6 9.7 0.00 0.00 0.00 87 1021.9
20260504172015 15 310 4.8 6.4 0.00 0.00 0.00 86 1021.8
20260504171512 16 279 1.6 3.2 0.00 0.00 0.00 86 1021.8
20260504171009 15 101 0.0 3.2 0.00 0.00 0.00 86 1021.9
20260504170505 16 25 1.6 9.7 0.00 0.00 0.00 85 1021.8
20260504160425 16 296 8.0 17.7 0.00 0.00 0.00 86 1022.0
20260504150849 17 79 1.6 11.3 0.00 0.00 0.00 86 1022.6
20260504150346 17 272 3.2 6.4 0.00 0.00 0.00 86 1022.7
20260504141316 17 344 4.8 6.4 0.00 2.36 2.36 85 1022.4
20260504140812 17 294 3.2 6.4 0.00 2.36 2.36 85 1022.3
20260504140308 17 299 6.4 11.3 0.00 2.36 2.36 84 1022.6
20260504130737 17 272 6.4 11.3 0.00 2.36 2.36 83 1022.5
20260504130233 17 331 12.9 20.9 0.00 2.36 2.36 82 1022.4
20260504120156 18 325 3.2 11.3 0.00 2.36 2.36 76 1021.9
20260504110624 18 280 1.6 3.2 0.00 2.34 2.34 76 1021.3
20260504110120 18 90 0.0 1.6 0.00 2.34 2.34 75 1021.1
20260504100545 18 81 0.0 0.0 0.00 2.34 2.34 76 1020.8
20260504081939 18 60 1.6 3.2 0.00 2.34 2.34 77 1020.3
20260504081436 18 354 1.6 3.2 0.00 2.34 2.34 77 1020.2
20260504080932 17 87 1.6 3.2 0.00 2.34 2.34 77 1020.2
20260504080428 17 59 0.0 1.6 0.00 2.34 2.34 77 1020.4
20260504070350 18 52 1.6 9.7 0.00 2.24 2.24 81 1020.3
20260504050737 20 345 3.2 4.8 0.00 1.98 1.98 76 1019.9
20260504050235 20 287 1.6 12.9 0.00 1.98 1.98 76 1019.9
20260504045732 20 29 6.4 20.9 0.00 1.98 1.98 76 1020.2